Location: Burbank
(38.7788°N, 114.0429°W)
Time: 23:10:20
(UTC+00:00)

S-56A Canister/Altair - Pass Details

Date: 19 May 2026
Orbit: 633 x 2484 km, 38.9° (Epoch: 1 June)

Event Time Altitude Azimuth Distance (km) Brightness Sun altitude
Rises 08:09:44 0° 278° (W) 2,988 - -30.8°
Reaches altitude 10° 08:12:05 10° 267° (W) 2,165 - -30.7°
Maximum altitude 08:16:21 30° 206° (SSW) 1,432 - -30.5°
Drops below altitude 10° 08:21:52 10° 147° (SSE) 2,826 - -30.3°
Sets 08:25:24 0° 138° (SE) 4,086 - -30.1°
